| time (UTC) | temp F | wind direction | speed knots | gust knots | rain 1hr in | rain 24hr in | rain mn in | humidity % | barometer mb |
| 20260507162249 | 55 | 326 | 0.0 | 1.7 | 0.00 | 0.03 | 0.03 | 88 | 1013.4 |
| 20260507161747 | 55 | 315 | 0.0 | 4.3 | 0.00 | 0.03 | 0.03 | 87 | 1013.4 |
| 20260507161243 | 55 | 272 | 1.7 | 1.7 | 0.00 | 0.03 | 0.03 | 89 | 1013.4 |
| 20260507160738 | 55 | 135 | 0.9 | 3.5 | 0.00 | 0.03 | 0.03 | 90 | 1013.6 |
| 20260507160235 | 55 | 351 | 1.7 | 2.6 | 0.00 | 0.03 | 0.03 | 92 | 1013.5 |
| 20260507155731 | 55 | 336 | 1.7 | 2.6 | 0.00 | 0.03 | 0.03 | 93 | 1013.7 |
| 20260507155227 | 55 | 313 | 2.6 | 3.5 | 0.00 | 0.03 | 0.03 | 93 | 1013.5 |
| 20260507154724 | 55 | 281 | 0.0 | 1.7 | 0.02 | 0.03 | 0.03 | 93 | 1013.5 |
| 20260507154222 | 55 | 145 | 0.0 | 1.7 | 0.02 | 0.03 | 0.03 | 92 | 1013.5 |
| 20260507153718 | 55 | 326 | 0.0 | 1.7 | 0.00 | 0.02 | 0.02 | 91 | 1013.7 |
| 20260507153215 | 55 | 301 | 1.7 | 3.5 | 0.00 | 0.02 | 0.02 | 89 | 1013.7 |
| 20260507152711 | 55 | 150 | 0.0 | 1.7 | 0.00 | 0.02 | 0.02 | 88 | 1013.7 |
| 20260507152207 | 55 | 238 | 1.7 | 2.6 | 0.00 | 0.02 | 0.02 | 87 | 1013.6 |
| 20260507151703 | 56 | 109 | 1.7 | 1.7 | 0.00 | 0.02 | 0.02 | 86 | 1013.5 |
| 20260507151200 | 56 | 319 | 0.0 | 2.6 | 0.00 | 0.02 | 0.02 | 86 | 1013.4 |
| 20260507150657 | 56 | 304 | 1.7 | 2.6 | 0.00 | 0.02 | 0.02 | 85 | 1013.5 |
| 20260507150154 | 56 | 339 | 1.7 | 1.7 | 0.00 | 0.02 | 0.02 | 85 | 1013.5 |
| 20260507145649 | 56 | 26 | 1.7 | 2.6 | 0.00 | 0.02 | 0.02 | 84 | 1013.5 |
| 20260507145147 | 56 | 114 | 0.0 | 2.6 | 0.00 | 0.02 | 0.02 | 84 | 1013.6 |
| 20260507144643 | 56 | 0 | 0.0 | 2.6 | 0.00 | 0.02 | 0.02 | 84 | 1013.3 |
| 20260507144142 | 56 | 292 | 0.0 | 3.5 | 0.00 | 0.02 | 0.02 | 83 | 1013.1 |
| 20260507143638 | 56 | 278 | 1.7 | 4.3 | 0.00 | 0.02 | 0.02 | 84 | 1013.1 |
| 20260507143135 | 56 | 233 | 0.0 | 2.6 | 0.00 | 0.02 | 0.02 | 84 | 1013.3 |
| 20260507142630 | 56 | 272 | 0.0 | 1.7 | 0.00 | 0.02 | 0.02 | 85 | 1013.2 |
| 20260507142128 | 56 | 38 | 2.6 | 3.5 | 0.00 | 0.02 | 0.02 | 85 | 1013.4 |
| 20260507141624 | 56 | 277 | 0.0 | 3.5 | 0.00 | 0.02 | 0.02 | 86 | 1013.7 |
| 20260507141121 | 56 | 292 | 0.0 | 3.5 | 0.00 | 0.02 | 0.02 | 86 | 1013.5 |
| 20260507140617 | 56 | 42 | 0.9 | 2.6 | 0.00 | 0.02 | 0.02 | 87 | 1013.7 |
| 20260507140115 | 56 | 296 | 2.6 | 3.5 | 0.00 | 0.02 | 0.02 | 87 | 1013.4 |
| 20260507135612 | 57 | 4 | 1.7 | 1.7 | 0.00 | 0.02 | 0.02 | 88 | 1013.7 |
| 20260507135109 | 56 | 313 | 2.6 | 2.6 | 0.00 | 0.02 | 0.02 | 88 | 1013.7 |
| 20260507134605 | 56 | 280 | 1.7 | 4.3 | 0.00 | 0.02 | 0.02 | 87 | 1013.5 |
| 20260507134101 | 56 | 357 | 1.7 | 4.3 | 0.02 | 0.02 | 0.02 | 89 | 1013.6 |
| 20260507133557 | 57 | 78 | 0.0 | 1.7 | 0.02 | 0.02 | 0.02 | 90 | 1013.5 |
| 20260507133055 | 57 | 309 | 0.0 | 1.7 | 0.00 | 0.02 | 0.02 | 90 | 1013.5 |
| 20260507132552 | 57 | 235 | 0.0 | 1.7 | 0.00 | 0.02 | 0.02 | 90 | 1013.2 |
| 20260507132048 | 57 | 15 | 0.9 | 1.7 | 0.00 | 0.02 | 0.02 | 88 | 1013.2 |
| 20260507131545 | 57 | 330 | 1.7 | 2.6 | 0.00 | 0.02 | 0.02 | 88 | 1013.4 |
| 20260507131042 | 57 | 320 | 1.7 | 2.6 | 0.00 | 0.02 | 0.02 | 88 | 1013.4 |
| 20260507130539 | 57 | 296 | 1.7 | 3.5 | 0.00 | 0.02 | 0.02 | 88 | 1013.3 |
| 20260507130038 | 57 | 316 | 1.7 | 5.2 | 0.00 | 0.02 | 0.02 | 88 | 1013.3 |
| 20260507125536 | 57 | 39 | 0.9 | 1.7 | 0.00 | 0.02 | 0.02 | 89 | 1013.1 |
| 20260507125033 | 57 | 75 | 0.9 | 1.7 | 0.00 | 0.02 | 0.02 | 88 | 1013.2 |
| 20260507124529 | 57 | 315 | 0.9 | 1.7 | 0.00 | 0.02 | 0.02 | 89 | 1013.1 |
| 20260507124027 | 57 | 317 | 1.7 | 2.6 | 0.00 | 0.02 | 0.02 | 89 | 1013.3 |
| 20260507123525 | 57 | 277 | 2.6 | 2.6 | 0.00 | 0.02 | 0.02 | 89 | 1013.1 |
| 20260507123021 | 57 | 341 | 0.9 | 2.6 | 0.00 | 0.02 | 0.02 | 89 | 1013.3 |
| 20260507122516 | 56 | 327 | 0.9 | 3.5 | 0.00 | 0.02 | 0.02 | 89 | 1013.2 |
| 20260507122013 | 56 | 38 | 1.7 | 1.7 | 0.00 | 0.02 | 0.02 | 89 | 1013.1 |
| 20260507121508 | 56 | 13 | 0.0 | 1.7 | 0.00 | 0.02 | 0.02 | 89 | 1013.2 |
| 20260507121004 | 56 | 264 | 0.9 | 3.5 | 0.00 | 0.02 | 0.02 | 89 | 1013.2 |
| 20260507120501 | 56 | 337 | 2.6 | 2.6 | 0.00 | 0.02 | 0.02 | 89 | 1012.9 |
| 20260507115957 | 56 | 67 | 0.0 | 1.7 | 0.00 | 0.02 | 0.02 | 89 | 1013.0 |
| 20260507115454 | 56 | 248 | 0.0 | 3.5 | 0.00 | 0.02 | 0.02 | 89 | 1013.3 |
| 20260507114949 | 56 | 318 | 2.6 | 4.3 | 0.00 | 0.02 | 0.02 | 88 | 1013.5 |
| 20260507114446 | 56 | 281 | 1.7 | 3.5 | 0.00 | 0.02 | 0.02 | 88 | 1013.3 |
| 20260507113943 | 56 | 304 | 0.0 | 1.7 | 0.00 | 0.02 | 0.02 | 88 | 1013.3 |
| 20260507113440 | 56 | 228 | 0.0 | 2.6 | 0.00 | 0.02 | 0.02 | 88 | 1013.4 |
| 20260507112938 | 56 | 296 | 0.0 | 2.6 | 0.00 | 0.02 | 0.02 | 88 | 1012.9 |
| 20260507112435 | 56 | 334 | 3.5 | 4.3 | 0.00 | 0.02 | 0.02 | 88 | 1013.1 |
| 20260507111932 | 56 | 72 | 0.0 | 1.7 | 0.00 | 0.02 | 0.02 | 87 | 1012.6 |
| 20260507111429 | 56 | 300 | 1.7 | 3.5 | 0.00 | 0.02 | 0.02 | 87 | 1012.6 |
| 20260507110925 | 56 | 184 | 0.0 | 2.6 | 0.00 | 0.02 | 0.02 | 87 | 1012.8 |
| 20260507110421 | 56 | 311 | 0.0 | 2.6 | 0.00 | 0.02 | 0.02 | 87 | 1012.9 |
| 20260507105918 | 56 | 25 | 1.7 | 1.7 | 0.00 | 0.02 | 0.02 | 87 | 1012.9 |
| 20260507105415 | 56 | 332 | 2.6 | 2.6 | 0.00 | 0.02 | 0.02 | 86 | 1012.9 |
| 20260507104912 | 56 | 275 | 0.0 | 3.5 | 0.00 | 0.02 | 0.02 | 85 | 1012.5 |
| 20260507104409 | 56 | 11 | 2.6 | 3.5 | 0.00 | 0.02 | 0.02 | 84 | 1012.6 |
| 20260507103904 | 56 | 256 | 0.0 | 2.6 | 0.00 | 0.02 | 0.02 | 85 | 1012.4 |
| 20260507103402 | 56 | 348 | 0.0 | 3.5 | 0.00 | 0.02 | 0.02 | 84 | 1012.5 |
| 20260507102857 | 56 | 334 | 1.7 | 3.5 | 0.00 | 0.02 | 0.02 | 84 | 1012.5 |
| 20260507102354 | 56 | 331 | 1.7 | 3.5 | 0.00 | 0.02 | 0.02 | 85 | 1012.1 |
| 20260507101850 | 56 | 304 | 1.7 | 2.6 | 0.00 | 0.02 | 0.02 | 85 | 1011.7 |
| 20260507101345 | 56 | 290 | 1.7 | 2.6 | 0.00 | 0.02 | 0.02 | 85 | 1011.9 |
| 20260507100842 | 56 | 334 | 1.7 | 3.5 | 0.00 | 0.02 | 0.02 | 86 | 1012.0 |
| 20260507100340 | 56 | 7 | 0.9 | 1.7 | 0.00 | 0.02 | 0.02 | 87 | 1012.2 |
| 20260507095838 | 56 | 20 | 0.9 | 3.5 | 0.00 | 0.02 | 0.02 | 87 | 1012.4 |
| 20260507095334 | 57 | 27 | 1.7 | 1.7 | 0.00 | 0.02 | 0.02 | 88 | 1012.4 |
| 20260507094832 | 57 | 230 | 0.9 | 2.6 | 0.00 | 0.02 | 0.02 | 88 | 1012.7 |
| 20260507094328 | 57 | 162 | 0.0 | 2.6 | 0.00 | 0.02 | 0.02 | 88 | 1012.2 |
| 20260507093825 | 57 | 19 | 1.7 | 2.6 | 0.00 | 0.02 | 0.02 | 89 | 1012.6 |
| 20260507093324 | 57 | 304 | 1.7 | 1.7 | 0.00 | 0.02 | 0.02 | 91 | 1012.4 |
| 20260507092821 | 57 | 326 | 0.9 | 2.6 | 0.00 | 0.02 | 0.02 | 91 | 1012.4 |
| 20260507092318 | 57 | 16 | 0.0 | 2.6 | 0.00 | 0.02 | 0.02 | 92 | 1012.4 |
| 20260507091814 | 57 | 116 | 0.9 | 4.3 | 0.00 | 0.02 | 0.02 | 92 | 1011.9 |
| 20260507091310 | 57 | 72 | 1.7 | 1.7 | 0.00 | 0.02 | 0.02 | 94 | 1012.1 |
| 20260507090805 | 57 | 302 | 1.7 | 2.6 | 0.02 | 0.02 | 0.02 | 94 | 1012.1 |
| 20260507090302 | 57 | 345 | 0.9 | 2.6 | 0.00 | 0.02 | 0.02 | 93 | 1012.3 |
| 20260507085759 | 57 | 352 | 0.9 | 5.2 | 0.00 | 0.02 | 0.02 | 93 | 1012.4 |
| 20260507085256 | 58 | 285 | 1.7 | 1.7 | 0.05 | 0.02 | 0.02 | 93 | 1012.0 |
| 20260507084754 | 58 | 7 | 1.7 | 2.6 | 0.02 | 0.01 | 0.01 | 93 | 1012.2 |
| 20260507084249 | 58 | 286 | 0.9 | 3.5 | 0.00 | 0.01 | 0.01 | 93 | 1012.2 |
| 20260507083747 | 59 | 125 | 0.0 | 2.6 | 0.02 | 0.01 | 0.01 | 93 | 1011.8 |
| 20260507083244 | 59 | 3 | 0.0 | 3.5 | 0.02 | 0.01 | 0.01 | 93 | 1012.1 |
| 20260507082740 | 59 | 140 | 1.7 | 3.5 | 0.00 | 0.00 | 0.00 | 93 | 1012.0 |
| 20260507082236 | 59 | 76 | 2.6 | 3.5 | 0.00 | 0.00 | 0.00 | 93 | 1011.9 |
| 20260507081733 | 60 | 126 | 0.9 | 3.5 | 0.00 | 0.00 | 0.00 | 94 | 1012.0 |
| 20260507081229 | 60 | 341 | 0.9 | 2.6 | 0.00 | 0.00 | 0.00 | 95 | 1012.0 |
| 20260507080725 | 61 | 353 | 1.7 | 3.5 | 0.00 | 0.00 | 0.00 | 95 | 1011.8 |
| 20260507080221 | 61 | 8 | 1.7 | 2.6 | 0.00 | 0.00 | 0.00 | 95 | 1011.8 |
| 20260507075717 | 63 | 306 | 2.6 | 3.5 | 0.00 | 0.00 | 0.00 | 96 | 1011.3 |
| 20260507075214 | 64 | 334 | 1.7 | 2.6 | 0.00 | 0.00 | 0.00 | 96 | 1011.1 |
| 20260507074710 | 64 | 321 | 0.0 | 2.6 | 0.00 | 0.00 | 0.00 | 97 | 1010.8 |
| 20260507074209 | 65 | 193 | 0.0 | 2.6 | 0.00 | 0.00 | 0.00 | 97 | 1011.0 |
| 20260507073704 | 65 | 40 | 0.0 | 2.6 | 0.00 | 0.00 | 0.00 | 96 | 1010.9 |
| 20260507073201 | 65 | 44 | 0.0 | 1.7 | 0.00 | 0.00 | 0.00 | 96 | 1010.9 |
| 20260507072659 | 65 | 324 | 0.0 | 1.7 | 0.00 | 0.00 | 0.00 | 96 | 1010.9 |
| 20260507072156 | 66 | 315 | 0.9 | 1.7 | 0.00 | 0.00 | 0.00 | 96 | 1011.0 |
| 20260507071654 | 66 | 89 | 0.0 | 1.7 | 0.00 | 0.00 | 0.00 | 96 | 1011.1 |
| 20260507071149 | 66 | 354 | 0.0 | 0.0 | 0.00 | 0.00 | 0.00 | 96 | 1011.0 |
| 20260507070647 | 66 | 287 | 0.0 | 0.9 | 0.00 | 0.00 | 0.00 | 96 | 1011.0 |
| 20260507070143 | 66 | 339 | 0.0 | 1.7 | 0.00 | 0.00 | 0.00 | 96 | 1011.1 |
| 20260507065640 | 66 | 315 | 0.0 | 1.7 | 0.00 | 0.00 | 0.00 | 95 | 1011.0 |
| 20260507065137 | 66 | 7 | 0.0 | 1.7 | 0.00 | 0.00 | 0.00 | 95 | 1010.6 |
| 20260507064634 | 66 | 321 | 0.0 | 0.9 | 0.00 | 0.00 | 0.00 | 94 | 1010.6 |
| 20260507064133 | 66 | 305 | 0.9 | 0.9 | 0.00 | 0.00 | 0.00 | 94 | 1010.4 |
| 20260507063630 | 67 | 335 | 0.0 | 0.9 | 0.02 | 0.00 | 0.00 | 93 | 1010.4 |
| 20260507063127 | 67 | 230 | 0.0 | 0.9 | 0.02 | 0.00 | 0.00 | 93 | 1010.4 |
| 20260507062624 | 67 | 326 | 0.0 | 0.9 | 0.00 | 0.00 | 0.00 | 92 | 1010.3 |
| 20260507062121 | 67 | 317 | 0.0 | 0.9 | 0.00 | 0.00 | 0.00 | 91 | 1010.2 |
| 20260507061619 | 67 | 235 | 0.0 | 0.0 | 0.00 | 0.00 | 0.00 | 91 | 1009.9 |
| 20260507061117 | 67 | 193 | 0.0 | 1.7 | 0.00 | 0.00 | 0.00 | 91 | 1009.8 |
| 20260507060615 | 67 | 314 | 0.0 | 0.9 | 0.00 | 0.00 | 0.00 | 91 | 1009.8 |
| 20260507060111 | 67 | 0 | 0.0 | 0.9 | 0.00 | 0.00 | 0.00 | 91 | 1009.8 |
| 20260507055606 | 67 | 209 | 0.0 | 1.7 | 0.00 | 0.00 | 0.00 | 92 | 1010.1 |
| 20260507055103 | 67 | 211 | 0.0 | 0.9 | 0.00 | 0.00 | 0.00 | 92 | 1010.2 |
| 20260507054558 | 68 | 169 | 0.9 | 1.7 | 0.00 | 0.00 | 0.00 | 90 | 1010.2 |
| 20260507054056 | 68 | 233 | 0.0 | 1.7 | 0.00 | 0.00 | 0.00 | 89 | 1009.8 |
| 20260507053554 | 68 | 235 | 0.0 | 1.7 | 0.00 | 0.00 | 0.00 | 89 | 1009.9 |
| 20260507053052 | 68 | 256 | 0.0 | 1.7 | 0.00 | 0.00 | 0.00 | 89 | 1010.3 |
| 20260507052549 | 68 | 200 | 0.0 | 1.7 | 0.00 | 0.00 | 0.00 | 89 | 1010.0 |
| 20260507052046 | 68 | 213 | 0.0 | 1.7 | 0.00 | 0.00 | 0.00 | 88 | 1010.3 |
| 20260507051544 | 68 | 230 | 0.0 | 0.9 | 0.00 | 0.00 | 0.00 | 88 | 1010.4 |
| 20260507051040 | 68 | 180 | 0.0 | 1.7 | 0.00 | 0.00 | 0.00 | 88 | 1010.4 |
| 20260507050537 | 68 | 224 | 1.7 | 1.7 | 0.00 | 0.00 | 0.00 | 88 | 1010.9 |
| 20260507050033 | 68 | 238 | 1.7 | 3.5 | 0.00 | 0.00 | 0.00 | 88 | 1010.9 |
| 20260507045530 | 68 | 269 | 0.0 | 2.6 | 0.00 | 0.00 | 0.00 | 88 | 1011.0 |
| 20260507045027 | 68 | 286 | 0.0 | 1.7 | 0.00 | 0.00 | 0.00 | 89 | 1011.1 |
| 20260507044524 | 68 | 267 | 0.0 | 1.7 | 0.00 | 0.00 | 0.00 | 89 | 1011.1 |
| 20260507044021 | 68 | 200 | 1.7 | 1.7 | 0.00 | 0.00 | 0.00 | 89 | 1011.2 |
| 20260507043517 | 68 | 242 | 0.0 | 1.7 | 0.00 | 0.00 | 0.00 | 89 | 1011.1 |
| 20260507043014 | 68 | 217 | 0.0 | 1.7 | 0.00 | 0.00 | 0.00 | 89 | 1011.5 |
| 20260507042510 | 68 | 277 | 0.0 | 1.7 | 0.00 | 0.00 | 0.00 | 89 | 1011.6 |
| 20260507042006 | 68 | 122 | 0.0 | 1.7 | 0.00 | 0.00 | 0.00 | 89 | 1011.5 |
| 20260507041503 | 68 | 214 | 0.0 | 1.7 | 0.00 | 0.00 | 0.00 | 89 | 1011.3 |
| 20260507041000 | 68 | 255 | 0.0 | 1.7 | 0.00 | 0.00 | 0.00 | 89 | 1010.9 |
| 20260507040455 | 68 | 309 | 0.0 | 0.9 | 0.00 | 0.00 | 0.00 | 89 | 1010.7 |
| 20260507035951 | 68 | 269 | 0.0 | 1.7 | 0.00 | 0.09 | 0.09 | 88 | 1011.3 |
| 20260507035448 | 68 | 242 | 0.0 | 1.7 | 0.00 | 0.09 | 0.09 | 88 | 1011.1 |
| 20260507034945 | 68 | 269 | 0.0 | 1.7 | 0.00 | 0.09 | 0.09 | 88 | 1011.1 |
| 20260507034442 | 68 | 155 | 0.0 | 3.5 | 0.00 | 0.09 | 0.09 | 88 | 1011.5 |
| 20260507033940 | 68 | 205 | 0.0 | 2.6 | 0.00 | 0.09 | 0.09 | 88 | 1011.6 |
| 20260507033438 | 68 | 52 | 0.0 | 1.7 | 0.00 | 0.09 | 0.09 | 88 | 1011.5 |
| 20260507032934 | 68 | 244 | 0.9 | 1.7 | 0.00 | 0.09 | 0.09 | 88 | 1011.1 |
| 20260507032431 | 68 | 254 | 0.9 | 1.7 | 0.00 | 0.09 | 0.09 | 88 | 1011.0 |
| 20260507031927 | 68 | 0 | 0.0 | 2.6 | 0.00 | 0.09 | 0.09 | 87 | 1011.1 |
| 20260507031426 | 68 | 250 | 0.9 | 1.7 | 0.00 | 0.09 | 0.09 | 87 | 1010.8 |
| 20260507030921 | 69 | 302 | 0.0 | 3.5 | 0.00 | 0.09 | 0.09 | 87 | 1010.9 |
| 20260507030418 | 69 | 301 | 0.0 | 1.7 | 0.00 | 0.09 | 0.09 | 87 | 1010.9 |
| 20260507025915 | 69 | 264 | 0.9 | 1.7 | 0.00 | 0.09 | 0.09 | 87 | 1010.9 |
| 20260507025412 | 69 | 249 | 1.7 | 1.7 | 0.00 | 0.09 | 0.09 | 87 | 1010.6 |
| 20260507024910 | 69 | 235 | 0.9 | 1.7 | 0.00 | 0.09 | 0.09 | 87 | 1010.4 |
| 20260507024407 | 69 | 231 | 2.6 | 3.5 | 0.00 | 0.09 | 0.09 | 87 | 1010.6 |
| 20260507023903 | 69 | 189 | 0.0 | 2.6 | 0.00 | 0.09 | 0.09 | 87 | 1010.7 |
| 20260507023400 | 68 | 224 | 0.0 | 3.5 | 0.00 | 0.09 | 0.09 | 87 | 1010.7 |
| 20260507022857 | 68 | 206 | 2.6 | 2.6 | 0.00 | 0.09 | 0.09 | 87 | 1011.0 |
| 20260507022354 | 68 | 268 | 0.0 | 2.6 | 0.00 | 0.09 | 0.09 | 87 | 1010.8 |
| 20260507021850 | 68 | 175 | 0.0 | 1.7 | 0.00 | 0.09 | 0.09 | 87 | 1011.1 |
| 20260507021345 | 68 | 224 | 2.6 | 3.5 | 0.00 | 0.09 | 0.09 | 87 | 1010.9 |
| 20260507020843 | 68 | 251 | 1.7 | 1.7 | 0.00 | 0.09 | 0.09 | 87 | 1011.2 |
| 20260507020339 | 68 | 278 | 0.9 | 1.7 | 0.00 | 0.09 | 0.09 | 87 | 1011.2 |
| 20260507015836 | 68 | 306 | 1.7 | 1.7 | 0.00 | 0.09 | 0.09 | 87 | 1011.3 |
| 20260507015335 | 68 | 269 | 0.0 | 1.7 | 0.00 | 0.09 | 0.09 | 87 | 1011.3 |
| 20260507014831 | 68 | 212 | 0.0 | 1.7 | 0.00 | 0.09 | 0.09 | 87 | 1011.5 |
| 20260507014327 | 68 | 231 | 0.0 | 2.6 | 0.00 | 0.09 | 0.09 | 87 | 1011.4 |
| 20260507013824 | 68 | 197 | 0.9 | 1.7 | 0.00 | 0.09 | 0.09 | 87 | 1011.1 |
| 20260507013321 | 68 | 205 | 0.0 | 1.7 | 0.00 | 0.09 | 0.09 | 87 | 1011.5 |
| 20260507012819 | 68 | 203 | 0.9 | 1.7 | 0.00 | 0.09 | 0.09 | 87 | 1011.3 |
| 20260507012314 | 68 | 220 | 0.0 | 1.7 | 0.00 | 0.09 | 0.09 | 86 | 1011.5 |
| 20260507011806 | 68 | 239 | 1.7 | 2.6 | 0.00 | 0.09 | 0.09 | 86 | 1011.2 |
| 20260507011303 | 68 | 269 | 0.9 | 1.7 | 0.00 | 0.09 | 0.09 | 87 | 1011.4 |
| 20260507010802 | 68 | 249 | 0.0 | 0.9 | 0.00 | 0.09 | 0.09 | 87 | 1011.4 |
| 20260507010258 | 68 | 260 | 0.0 | 0.9 | 0.00 | 0.09 | 0.09 | 86 | 1011.3 |
| 20260507005756 | 68 | 247 | 1.7 | 2.6 | 0.00 | 0.09 | 0.09 | 86 | 1010.9 |
| 20260507005252 | 68 | 228 | 0.0 | 1.7 | 0.00 | 0.09 | 0.09 | 86 | 1010.7 |
| 20260507004749 | 68 | 266 | 0.0 | 0.9 | 0.00 | 0.09 | 0.09 | 86 | 1011.1 |
| 20260507004247 | 68 | 221 | 2.6 | 2.6 | 0.00 | 0.09 | 0.09 | 86 | 1011.1 |
| 20260507003743 | 68 | 200 | 0.9 | 2.6 | 0.00 | 0.09 | 0.09 | 85 | 1011.0 |
| 20260507003238 | 69 | 182 | 0.0 | 1.7 | 0.00 | 0.09 | 0.09 | 85 | 1011.3 |
| 20260507002734 | 69 | 230 | 2.6 | 3.5 | 0.00 | 0.09 | 0.09 | 85 | 1011.4 |
| 20260507002230 | 69 | 263 | 2.6 | 2.6 | 0.00 | 0.09 | 0.09 | 85 | 1011.1 |
| 20260507001727 | 69 | 240 | 0.0 | 1.7 | 0.00 | 0.09 | 0.09 | 84 | 1011.3 |
| 20260507001225 | 69 | 194 | 1.7 | 4.3 | 0.00 | 0.09 | 0.09 | 84 | 1011.2 |
| 20260507000721 | 69 | 221 | 1.7 | 1.7 | 0.00 | 0.09 | 0.09 | 84 | 1011.2 |
| 20260507000216 | 69 | 157 | 0.9 | 3.5 | 0.00 | 0.09 | 0.09 | 83 | 1011.3 |
| 20260506235714 | 69 | 283 | 0.0 | 1.7 | 0.00 | 0.09 | 0.09 | 84 | 1011.1 |
| 20260506235209 | 69 | 204 | 0.9 | 1.7 | 0.00 | 0.09 | 0.09 | 83 | 1011.0 |
| 20260506234706 | 69 | 123 | 0.0 | 1.7 | 0.00 | 0.09 | 0.09 | 82 | 1011.2 |
| 20260506234204 | 69 | 208 | 2.6 | 2.6 | 0.00 | 0.09 | 0.09 | 82 | 1010.9 |
| 20260506233701 | 70 | 269 | 0.0 | 1.7 | 0.00 | 0.09 | 0.09 | 82 | 1010.8 |
| 20260506233157 | 70 | 245 | 0.9 | 3.5 | 0.00 | 0.09 | 0.09 | 81 | 1011.1 |
| 20260506232654 | 70 | 151 | 0.0 | 1.7 | 0.00 | 0.09 | 0.09 | 81 | 1010.8 |
| 20260506232149 | 70 | 216 | 1.7 | 3.5 | 0.00 | 0.09 | 0.09 | 81 | 1010.8 |
| 20260506231646 | 70 | 221 | 0.0 | 2.6 | 0.00 | 0.09 | 0.09 | 80 | 1010.7 |
| 20260506231145 | 70 | 252 | 0.9 | 3.5 | 0.00 | 0.09 | 0.09 | 80 | 1010.9 |
| 20260506230641 | 70 | 189 | 0.0 | 2.6 | 0.00 | 0.09 | 0.09 | 79 | 1010.7 |
| 20260506230138 | 70 | 216 | 1.7 | 2.6 | 0.00 | 0.09 | 0.09 | 79 | 1010.6 |
| 20260506225635 | 70 | 220 | 0.9 | 3.5 | 0.00 | 0.09 | 0.09 | 79 | 1010.8 |
| 20260506225131 | 70 | 148 | 1.7 | 4.3 | 0.00 | 0.09 | 0.09 | 79 | 1010.8 |
| 20260506224628 | 70 | 173 | 1.7 | 3.5 | 0.00 | 0.09 | 0.09 | 79 | 1010.7 |
| 20260506224124 | 70 | 230 | 0.0 | 2.6 | 0.00 | 0.09 | 0.09 | 80 | 1011.1 |
| 20260506223621 | 70 | 206 | 0.0 | 1.7 | 0.00 | 0.09 | 0.09 | 80 | 1010.9 |
| 20260506223117 | 70 | 246 | 1.7 | 3.5 | 0.00 | 0.09 | 0.09 | 79 | 1010.8 |
| 20260506222614 | 70 | 230 | 0.0 | 4.3 | 0.00 | 0.09 | 0.09 | 80 | 1011.0 |
| 20260506222110 | 70 | 277 | 1.7 | 1.7 | 0.00 | 0.09 | 0.09 | 80 | 1010.9 |
| 20260506221608 | 70 | 254 | 0.9 | 2.6 | 0.00 | 0.09 | 0.09 | 79 | 1011.1 |
| 20260506221106 | 70 | 226 | 1.7 | 5.2 | 0.00 | 0.09 | 0.09 | 78 | 1010.9 |
| 20260506220602 | 70 | 208 | 1.7 | 3.5 | 0.00 | 0.09 | 0.09 | 79 | 1011.1 |
| 20260506220057 | 70 | 279 | 2.6 | 4.3 | 0.00 | 0.09 | 0.09 | 79 | 1010.7 |
| 20260506215554 | 70 | 240 | 1.7 | 2.6 | 0.00 | 0.09 | 0.09 | 79 | 1010.6 |
| 20260506215050 | 70 | 269 | 0.0 | 2.6 | 0.00 | 0.09 | 0.09 | 79 | 1011.0 |
| 20260506214547 | 70 | 190 | 3.5 | 3.5 | 0.00 | 0.09 | 0.09 | 79 | 1010.6 |
| 20260506214044 | 70 | 211 | 1.7 | 4.3 | 0.00 | 0.09 | 0.09 | 79 | 1010.9 |
| 20260506213543 | 71 | 226 | 1.7 | 5.2 | 0.00 | 0.09 | 0.09 | 78 | 1010.7 |
| 20260506213040 | 71 | 241 | 1.7 | 4.3 | 0.00 | 0.09 | 0.09 | 79 | 1010.7 |
| 20260506212536 | 71 | 220 | 2.6 | 3.5 | 0.00 | 0.09 | 0.09 | 79 | 1010.7 |
| 20260506212031 | 70 | 220 | 1.7 | 5.2 | 0.00 | 0.09 | 0.09 | 79 | 1011.1 |
| 20260506211527 | 71 | 239 | 2.6 | 7.8 | 0.00 | 0.09 | 0.09 | 79 | 1010.9 |
| 20260506211024 | 70 | 272 | 1.7 | 5.2 | 0.00 | 0.09 | 0.09 | 80 | 1010.9 |
| 20260506210521 | 70 | 208 | 1.7 | 5.2 | 0.00 | 0.09 | 0.09 | 81 | 1011.0 |
| 20260506210017 | 71 | 229 | 1.7 | 2.6 | 0.00 | 0.09 | 0.09 | 81 | 1011.1 |
| 20260506205514 | 70 | 258 | 1.7 | 5.2 | 0.00 | 0.09 | 0.09 | 81 | 1010.9 |
| 20260506205009 | 70 | 265 | 0.9 | 3.5 | 0.00 | 0.09 | 0.09 | 82 | 1011.0 |
| 20260506204508 | 70 | 211 | 1.7 | 3.5 | 0.00 | 0.09 | 0.09 | 82 | 1010.8 |
| 20260506204004 | 70 | 212 | 1.7 | 4.3 | 0.00 | 0.09 | 0.09 | 82 | 1011.1 |
| 20260506203502 | 69 | 252 | 1.7 | 1.7 | 0.00 | 0.09 | 0.09 | 83 | 1011.1 |
| 20260506202958 | 69 | 279 | 0.9 | 1.7 | 0.00 | 0.09 | 0.09 | 84 | 1010.7 |
| 20260506202456 | 68 | 211 | 1.7 | 2.6 | 0.00 | 0.09 | 0.09 | 84 | 1010.9 |
| 20260506201946 | 68 | 212 | 0.0 | 0.9 | 0.00 | 0.09 | 0.09 | 86 | 1010.8 |
| 20260506201444 | 68 | 191 | 0.9 | 0.9 | 0.00 | 0.09 | 0.09 | 86 | 1011.3 |
| 20260506200941 | 68 | 290 | 0.0 | 2.6 | 0.00 | 0.09 | 0.09 | 86 | 1011.3 |
| 20260506200437 | 68 | 278 | 0.0 | 1.7 | 0.00 | 0.09 | 0.09 | 86 | 1011.4 |
| 20260506195933 | 68 | 72 | 0.0 | 0.9 | 0.00 | 0.09 | 0.09 | 87 | 1011.1 |
| 20260506195430 | 68 | 235 | 0.0 | 2.6 | 0.00 | 0.09 | 0.09 | 86 | 1011.2 |
| 20260506194927 | 68 | 204 | 1.7 | 1.7 | 0.00 | 0.09 | 0.09 | 86 | 1010.7 |
| 20260506194424 | 67 | 290 | 0.0 | 2.6 | 0.00 | 0.09 | 0.09 | 87 | 1010.8 |
| 20260506193921 | 67 | 264 | 0.0 | 2.6 | 0.00 | 0.09 | 0.09 | 86 | 1010.6 |
| 20260506193419 | 67 | 221 | 0.0 | 4.3 | 0.00 | 0.09 | 0.09 | 86 | 1010.5 |
| 20260506192915 | 67 | 238 | 0.9 | 1.7 | 0.00 | 0.09 | 0.09 | 87 | 1010.6 |
| 20260506192412 | 67 | 201 | 0.0 | 2.6 | 0.00 | 0.09 | 0.09 | 87 | 1010.7 |
| 20260506191909 | 67 | 173 | 1.7 | 3.5 | 0.00 | 0.09 | 0.09 | 87 | 1010.8 |
| 20260506191405 | 66 | 308 | 1.7 | 2.6 | 0.00 | 0.09 | 0.09 | 88 | 1011.1 |
| 20260506190902 | 66 | 198 | 1.7 | 2.6 | 0.00 | 0.09 | 0.09 | 88 | 1011.1 |
| 20260506190358 | 66 | 150 | 0.0 | 2.6 | 0.00 | 0.09 | 0.09 | 89 | 1011.4 |
| 20260506185855 | 66 | 340 | 1.7 | 2.6 | 0.00 | 0.09 | 0.09 | 89 | 1011.4 |
| 20260506185352 | 65 | 216 | 0.0 | 4.3 | 0.00 | 0.09 | 0.09 | 89 | 1011.7 |
| 20260506184849 | 65 | 221 | 4.3 | 7.0 | 0.00 | 0.09 | 0.09 | 89 | 1011.6 |
| 20260506184346 | 65 | 301 | 1.7 | 3.5 | 0.00 | 0.09 | 0.09 | 90 | 1011.6 |
| 20260506183844 | 65 | 177 | 0.0 | 2.6 | 0.00 | 0.09 | 0.09 | 90 | 1011.6 |
| 20260506183339 | 65 | 214 | 2.6 | 2.6 | 0.00 | 0.09 | 0.09 | 90 | 1011.8 |
| 20260506182836 | 65 | 293 | 1.7 | 2.6 | 0.00 | 0.09 | 0.09 | 91 | 1011.6 |
| 20260506182333 | 65 | 255 | 1.7 | 5.2 | 0.00 | 0.09 | 0.09 | 90 | 1011.6 |
| 20260506181831 | 65 | 200 | 1.7 | 6.1 | 0.00 | 0.09 | 0.09 | 88 | 1011.6 |
| 20260506181329 | 65 | 211 | 4.3 | 8.7 | 0.00 | 0.09 | 0.09 | 88 | 1012.0 |
| 20260506180826 | 66 | 139 | 2.6 | 5.2 | 0.00 | 0.09 | 0.09 | 88 | 1012.1 |
| 20260506180321 | 66 | 300 | 0.9 | 4.3 | 0.00 | 0.09 | 0.09 | 88 | 1012.3 |
| 20260506175818 | 66 | 242 | 1.7 | 2.6 | 0.00 | 0.09 | 0.09 | 88 | 1012.4 |
| 20260506175315 | 66 | 180 | 0.0 | 2.6 | 0.00 | 0.09 | 0.09 | 89 | 1012.2 |
| 20260506174812 | 66 | 186 | 1.7 | 3.5 | 0.00 | 0.09 | 0.09 | 89 | 1012.3 |
| 20260506174309 | 65 | 144 | 2.6 | 4.3 | 0.00 | 0.09 | 0.09 | 89 | 1012.5 |
| 20260506173807 | 65 | 248 | 1.7 | 4.3 | 0.00 | 0.09 | 0.09 | 90 | 1012.3 |
| 20260506173304 | 65 | 194 | 1.7 | 5.2 | 0.00 | 0.09 | 0.09 | 89 | 1012.3 |
| 20260506172801 | 65 | 229 | 2.6 | 3.5 | 0.00 | 0.09 | 0.09 | 91 | 1012.1 |
| 20260506172257 | 64 | 248 | 1.7 | 5.2 | 0.00 | 0.09 | 0.09 | 91 | 1012.1 |
| 20260506171755 | 64 | 218 | 1.7 | 2.6 | 0.00 | 0.09 | 0.09 | 93 | 1012.1 |
| 20260506171251 | 64 | 238 | 3.5 | 3.5 | 0.00 | 0.09 | 0.09 | 92 | 1012.1 |
| 20260506170749 | 64 | 228 | 1.7 | 3.5 | 0.00 | 0.09 | 0.09 | 92 | 1012.0 |
| 20260506170245 | 64 | 203 | 1.7 | 7.0 | 0.00 | 0.09 | 0.09 | 92 | 1012.2 |
| 20260506165744 | 64 | 126 | 2.6 | 3.5 | 0.00 | 0.09 | 0.09 | 93 | 1012.6 |
| 20260506165241 | 64 | 238 | 0.0 | 4.3 | 0.00 | 0.09 | 0.09 | 93 | 1012.9 |
| 20260506164738 | 64 | 313 | 0.9 | 4.3 | 0.00 | 0.09 | 0.09 | 94 | 1012.4 |
| 20260506164235 | 64 | 269 | 0.0 | 1.7 | 0.00 | 0.09 | 0.09 | 94 | 1012.6 |
| 20260506163731 | 64 | 197 | 3.5 | 3.5 | 0.02 | 0.09 | 0.09 | 93 | 1012.9 |
| 20260506163226 | 64 | 202 | 1.7 | 3.5 | 0.00 | 0.08 | 0.08 | 93 | 1013.0 |
| 20260506162723 | 63 | 151 | 2.6 | 4.3 | 0.00 | 0.08 | 0.08 | 93 | 1012.9 |